Location: Unspecified
(48.8656°N, 0.0000°E)
Time: 23:00:19
(UTC+00:00)

Altair - Pass Details

Date: 22 June 2019
Orbit: 1501 x 1683 km, 47.2° (Epoch: 19 July)

Event Time Altitude Azimuth Distance (km) Brightness Sun altitude
Rises 22:33:16 0° 267° (W) 4,762 10.3 -15.0°
Reaches altitude 10° 22:36:17 10° 267° (W) 3,801 9.8 -15.2°
Maximum altitude 22:46:02 83° 182° (S) 1,653 7.5 -15.7°
Drops below altitude 10° 22:56:09 10° 96° (E) 3,928 9.4 -16.2°
Sets 22:59:20 0° 96° (E) 4,926 9.9 -16.4°
